Find Starlink 5988

NORAD ID: 56320 Int'l Des: 2023-058 Owner: SPXS Country: US Constellation: starlink operational
LEOCIRCULARRETROGRADESSO

实时位置

正在加载3D地球...

关于 Starlink 5988

正在加载描述...

即将过境

Passes for default location (London). Set your location on the main map for personalized predictions.

高度历史

Loading altitude history...

两行轨道根数

1 56320U 23058D 26126.92991486 -.00000927 00000-0 -60116-4 0 9997
2 56320 97.5299 127.3674 0002285 99.8075 260.3410 15.05656708166545
Epoch: May 6, 2026 • Age: 5 hours

当前状态

高度 552.1 km
速度 7.59 km/s
星下点 24.38°N, 149°W
发射日期 Apr 27, 2023
运行时间 3 years
类型 internet

技术详情

分类 Payload
质量 300.00 kg
干质量 260.00 kg
总质量 300.00 kg
长度 0.20 m
直径 2.80 m
跨度 9.00 m
形状 Box + pan
制造商 SPXS
平台类型 Starlink
阶段状态 In Orbit
所有者/国家 SPXS/US

Most Searched